TimeEST,TemperatureF,Dew PointF,Humidity,Sea Level PressureIn,VisibilityMPH,Wind Direction,Wind SpeedMPH,Gust SpeedMPH,PrecipitationIn,Events,Conditions,WindDirDegrees,DateUTC
12:15 AM,51.8,42.8,71,30.05,10.0,Calm,Calm,-,N/A,,Overcast,0,2012-12-07 05:15:00
12:35 AM,51.8,42.8,71,30.05,10.0,South,3.5,-,N/A,,Overcast,180,2012-12-07 05:35:00
12:55 AM,51.8,42.8,71,30.05,10.0,Calm,Calm,-,N/A,,Overcast,0,2012-12-07 05:55:00
1:15 AM,51.8,44.6,76,30.05,10.0,Calm,Calm,-,N/A,,Light Drizzle,0,2012-12-07 06:15:00
1:35 AM,51.8,44.6,76,30.04,10.0,South,3.5,-,N/A,Rain,Light Rain,170,2012-12-07 06:35:00
1:55 AM,51.8,44.6,76,30.04,10.0,Calm,Calm,-,N/A,,Overcast,0,2012-12-07 06:55:00
2:15 AM,51.8,44.6,76,30.05,10.0,Calm,Calm,-,N/A,,Overcast,0,2012-12-07 07:15:00
2:35 AM,51.8,44.6,76,30.04,10.0,ESE,3.5,-,N/A,Rain,Light Rain,120,2012-12-07 07:35:00
2:55 AM,50.0,44.6,82,30.04,10.0,ESE,3.5,-,N/A,,Overcast,120,2012-12-07 07:55:00
3:15 AM,50.0,44.6,82,30.04,10.0,Calm,Calm,-,N/A,,Overcast,0,2012-12-07 08:15:00
3:35 AM,50.0,44.6,82,30.04,10.0,SE,3.5,-,N/A,,Overcast,140,2012-12-07 08:35:00
3:55 AM,51.8,44.6,76,30.03,10.0,South,3.5,-,N/A,,Overcast,170,2012-12-07 08:55:00
4:15 AM,51.8,44.6,76,30.03,10.0,South,4.6,-,N/A,,Overcast,190,2012-12-07 09:15:00
4:35 AM,53.6,44.6,72,30.03,10.0,SSW,5.8,-,N/A,,Overcast,200,2012-12-07 09:35:00
4:55 AM,53.6,44.6,72,30.02,10.0,South,4.6,-,N/A,,Overcast,180,2012-12-07 09:55:00
5:15 AM,53.6,44.6,72,30.02,10.0,Calm,Calm,-,N/A,,Overcast,0,2012-12-07 10:15:00
5:35 AM,53.6,44.6,72,30.02,10.0,South,3.5,-,N/A,,Overcast,170,2012-12-07 10:35:00
5:55 AM,53.6,44.6,72,30.02,10.0,South,3.5,-,N/A,,Overcast,180,2012-12-07 10:55:00
6:15 AM,53.6,46.4,77,30.03,10.0,South,5.8,-,N/A,,Overcast,170,2012-12-07 11:15:00
6:35 AM,53.6,46.4,77,30.03,10.0,South,3.5,-,N/A,,Overcast,180,2012-12-07 11:35:00
6:55 AM,53.6,44.6,72,30.03,10.0,South,5.8,-,N/A,,Overcast,170,2012-12-07 11:55:00
7:15 AM,53.6,44.6,72,30.03,10.0,South,5.8,-,N/A,,Overcast,170,2012-12-07 12:15:00
7:35 AM,53.6,44.6,72,30.03,10.0,South,4.6,-,N/A,,Overcast,180,2012-12-07 12:35:00
7:55 AM,53.6,46.4,77,30.03,10.0,South,6.9,-,N/A,,Overcast,180,2012-12-07 12:55:00
8:15 AM,53.6,46.4,77,30.03,10.0,South,4.6,-,N/A,,Overcast,190,2012-12-07 13:15:00
8:35 AM,53.6,46.4,77,30.03,10.0,South,5.8,-,N/A,,Overcast,190,2012-12-07 13:35:00
8:55 AM,53.6,46.4,77,30.03,10.0,SSW,6.9,-,N/A,,Overcast,200,2012-12-07 13:55:00
9:15 AM,53.6,46.4,77,30.03,10.0,South,6.9,-,N/A,,Mostly Cloudy,190,2012-12-07 14:15:00
9:35 AM,53.6,46.4,77,30.03,10.0,SSW,6.9,-,N/A,,Scattered Clouds,200,2012-12-07 14:35:00
9:55 AM,55.4,46.4,72,30.03,10.0,South,11.5,-,N/A,,Scattered Clouds,190,2012-12-07 14:55:00
10:15 AM,55.4,46.4,72,30.03,10.0,South,11.5,16.1,N/A,,Mostly Cloudy,190,2012-12-07 15:15:00
10:35 AM,55.4,46.4,72,30.03,10.0,SSW,9.2,-,N/A,,Mostly Cloudy,200,2012-12-07 15:35:00
10:55 AM,55.4,48.2,77,30.03,10.0,South,9.2,17.3,N/A,,Overcast,190,2012-12-07 15:55:00
11:15 AM,55.4,48.2,77,30.02,10.0,South,9.2,-,N/A,,Overcast,190,2012-12-07 16:15:00
11:35 AM,57.2,48.2,72,30.01,10.0,South,5.8,-,N/A,,Light Drizzle,190,2012-12-07 16:35:00
11:55 AM,57.2,48.2,72,30.00,10.0,South,8.1,-,N/A,,Overcast,180,2012-12-07 16:55:00
12:15 PM,59.0,48.2,67,29.98,10.0,SSW,6.9,-,N/A,,Overcast,200,2012-12-07 17:15:00
12:35 PM,59.0,50.0,72,29.98,10.0,South,8.1,-,N/A,,Overcast,190,2012-12-07 17:35:00
12:55 PM,60.8,50.0,68,29.96,10.0,South,10.4,-,N/A,,Mostly Cloudy,180,2012-12-07 17:55:00
1:15 PM,60.8,50.0,68,29.96,10.0,South,9.2,-,N/A,,Overcast,180,2012-12-07 18:15:00
1:35 PM,60.8,50.0,68,29.95,10.0,South,8.1,-,N/A,,Overcast,180,2012-12-07 18:35:00
1:55 PM,62.6,50.0,63,29.94,10.0,SSW,6.9,-,N/A,,Overcast,210,2012-12-07 18:55:00
2:15 PM,62.6,50.0,63,29.93,10.0,South,3.5,-,N/A,,Overcast,180,2012-12-07 19:15:00
2:35 PM,62.6,50.0,63,29.93,10.0,SSW,8.1,-,N/A,,Overcast,210,2012-12-07 19:35:00
2:55 PM,62.6,50.0,63,29.92,10.0,SSW,9.2,-,N/A,,Overcast,200,2012-12-07 19:55:00
3:15 PM,62.6,50.0,63,29.92,10.0,SSW,6.9,-,N/A,,Overcast,200,2012-12-07 20:15:00
3:35 PM,60.8,50.0,68,29.92,10.0,South,5.8,-,N/A,,Overcast,180,2012-12-07 20:35:00
3:55 PM,60.8,50.0,68,29.92,10.0,South,5.8,-,N/A,,Overcast,190,2012-12-07 20:55:00
4:15 PM,60.8,50.0,68,29.93,10.0,South,4.6,-,N/A,,Overcast,190,2012-12-07 21:15:00
4:35 PM,60.8,50.0,68,29.93,10.0,South,3.5,-,N/A,,Mostly Cloudy,180,2012-12-07 21:35:00
4:55 PM,60.8,50.0,68,29.93,10.0,South,4.6,-,N/A,,Scattered Clouds,170,2012-12-07 21:55:00
5:15 PM,59.0,48.2,67,29.93,10.0,SSW,3.5,-,N/A,,Scattered Clouds,200,2012-12-07 22:15:00
5:35 PM,59.0,48.2,67,29.93,10.0,South,4.6,-,N/A,,Mostly Cloudy,180,2012-12-07 22:35:00
5:55 PM,59.0,48.2,67,29.92,10.0,South,5.8,-,N/A,,Mostly Cloudy,170,2012-12-07 22:55:00
6:15 PM,57.2,48.2,72,29.93,10.0,South,4.6,-,N/A,,Scattered Clouds,180,2012-12-07 23:15:00
6:35 PM,57.2,48.2,72,29.93,10.0,South,3.5,-,N/A,,Scattered Clouds,170,2012-12-07 23:35:00
6:55 PM,57.2,48.2,72,29.93,10.0,South,4.6,-,N/A,,Mostly Cloudy,180,2012-12-07 23:55:00
7:15 PM,57.2,48.2,72,29.93,10.0,South,4.6,-,N/A,,Overcast,190,2012-12-08 00:15:00
7:35 PM,57.2,48.2,72,29.93,10.0,SSW,4.6,-,N/A,,Overcast,200,2012-12-08 00:35:00
8:15 PM,57.2,48.2,72,29.94,10.0,SSW,4.6,-,N/A,,Overcast,210,2012-12-08 01:15:00
8:35 PM,57.2,48.2,72,29.94,10.0,SSW,3.5,-,N/A,,Overcast,200,2012-12-08 01:35:00
8:55 PM,55.4,48.2,77,29.94,10.0,South,3.5,-,N/A,,Overcast,190,2012-12-08 01:55:00
9:15 PM,55.4,48.2,77,29.94,10.0,SSW,4.6,-,N/A,,Mostly Cloudy,200,2012-12-08 02:15:00
9:35 PM,55.4,48.2,77,29.94,10.0,South,4.6,-,N/A,,Overcast,190,2012-12-08 02:35:00
9:55 PM,55.4,48.2,77,29.95,10.0,South,3.5,-,N/A,,Overcast,190,2012-12-08 02:55:00
10:15 PM,55.4,50.0,82,29.95,10.0,South,5.8,-,N/A,,Overcast,180,2012-12-08 03:15:00
10:35 PM,55.4,50.0,82,29.95,10.0,South,4.6,-,N/A,,Overcast,190,2012-12-08 03:35:00
10:55 PM,55.4,50.0,82,29.95,10.0,South,4.6,-,N/A,,Overcast,180,2012-12-08 03:55:00
11:15 PM,55.4,50.0,82,29.95,10.0,SSW,4.6,-,N/A,,Overcast,200,2012-12-08 04:15:00
11:35 PM,55.4,50.0,82,29.95,10.0,SSW,4.6,-,N/A,Rain,Rain,200,2012-12-08 04:35:00
11:55 PM,55.4,50.0,82,29.95,10.0,South,3.5,-,N/A,,Overcast,170,2012-12-08 04:55:00